Location: Fours
(44.3167°N, 6.7000°E)
Time: 14:45:08
(UTC+00:00)

X-37B - Pass Details

Date: 08 December 2021
Orbit: 334 x 337 km, 45.0° (Epoch: 11 January)

Event Time Altitude Azimuth Distance (km) Brightness Sun altitude
Rises 17:32:55 0° 240° (WSW) 2,097 5.8 -17.0°
Reaches altitude 10° 17:34:57 10° 234° (SW) 1,262 4.3 -17.4°
Enters shadow 17:37:40 46° 160° (SSE) 456 0.8 -17.8°
